QPF
0.00 0.00 0.00 0.00 0.00 0.00 0.00 0.00 0.00 0.00 0.00 0.00 0.00 0.00 0.00 0.00 0.00 0.00 0.00 0.00 0.00 0.00 0.00 0.00 0.00 0.00 0.00 0.00 0.00 0.00 0.00 0.00 0.00 0.00 0.00 0.00 0.00 0.00 0.00 0.00 0.00 0.00 0.00 0.00 0.00 0.00 0.00 0.00 0.00
0.00 0.00 0.00 0.00 0.00 0.00 0.00 0.00 0.00 0.00 0.00 0.00 0.00 0.00 0.00 0.00 0.00 0.00 0.00 0.00 0.00 0.00 0.00 0.00 0.00 0.00 0.00 0.00 0.00 0.00 0.00 0.00 0.00 0.00 0.00 0.00 0.00 0.00 0.00 0.00 0.00 0.00 0.00 0.00 0.00 0.00 0.00 0.00 0.00
0.00 0.00 0.00 0.00 0.00 0.00 0.00 0.00 0.00 0.00 0.00 0.00 0.00 0.00 0.00 0.00 0.00 0.00 0.00 0.00 0.00 0.00 0.00 0.00 0.00 0.00 0.00 0.00 0.00 0.00 0.00 0.00 0.00 0.00 0.00 0.00 0.00 0.00 0.01 0.01 0.00 0.00 0.00 0.00 0.00 0.00 0.01 0.00 0.00
0.00 0.00 0.00 0.00 0.00 0.00 0.00 0.00 0.00 0.00 0.00 0.00 0.00 0.00 0.00 0.00 0.00 0.00 0.00 0.00 0.00 0.00 0.00 0.00 0.00 0.00 0.00 0.00 0.00 0.00 0.00 0.00 0.00 0.00 0.00 0.00 0.00 0.01 0.02 0.01 0.01 0.00 0.00 0.00 0.00 0.00 0.00 0.02 0.01
0.00 0.00 0.00 0.00 0.00 0.00 0.00 0.00 0.00 0.00 0.00 0.00 0.00 0.00 0.00 0.00 0.00 0.00 0.00 0.00 0.00 0.00 0.00 0.00 0.00 0.00 0.00 0.00 0.00 0.00 0.00 0.00 0.00 0.00 0.00 0.00 0.00 0.00 0.00 0.00 0.00 0.00 0.00 0.00 0.00 0.00 0.00 0.09 0.05
0.00 0.00 0.00 0.00 0.00 0.00 0.00 0.00 0.00 0.00 0.00 0.00 0.00 0.00 0.00 0.00 0.00 0.00 0.00 0.00 0.00 0.00 0.00 0.00 0.00 0.00 0.00 0.00 0.00 0.00 0.00 0.00 0.00 0.00 0.00 0.00 0.00 0.00 0.01 0.00 0.00 0.02 0.01 0.00 0.01 0.00 0.00 0.00 0.01
0.00 0.00 0.00 0.00 0.00 0.00 0.00 0.00 0.00 0.00 0.00 0.00 0.00 0.00 0.00 0.00 0.00 0.00 0.00 0.00 0.00 0.00 0.00 0.00 0.00 0.00 0.00 0.00 0.00 0.00 0.00 0.00 0.00 0.00 0.00 0.00 0.00 0.00 0.01 0.01 0.00 0.01 0.01 0.04 0.02 0.02 0.00 0.01 0.00
0.00 0.00 0.00 0.00 0.00 0.00 0.00 0.00 0.00 0.00 0.00 0.00 0.00 0.00 0.00 0.00 0.00 0.00 0.00 0.00 0.00 0.00 0.00 0.00 0.00 0.00 0.00 0.00 0.00 0.00 0.00 0.00 0.00 0.00 0.00 0.00 0.01 0.00 0.00 0.00 0.01 0.02 0.02 0.02 0.02 0.04 0.01 0.00 0.00
0.00 0.00 0.00 0.00 0.00 0.00 0.00 0.00 0.00 0.00 0.00 0.00 0.00 0.00 0.00 0.00 0.00 0.00 0.00 0.00 0.00 0.00 0.00 0.00 0.00 0.00 0.00 0.00 0.00 0.00 0.00 0.00 0.00 0.00 0.00 0.02 0.01 0.00 0.00 0.01 0.02 0.01 0.00 0.00 0.00 0.00 0.00 0.02 0.00
0.00 0.00 0.00 0.00 0.00 0.00 0.00 0.00 0.00 0.00 0.00 0.00 0.00 0.00 0.00 0.00 0.00 0.00 0.00 0.00 0.00 0.00 0.00 0.00 0.00 0.00 0.00 0.00 0.00 0.00 0.00 0.00 0.00 0.00 0.00 0.00 0.00 0.00 0.00 0.00 0.00 0.00 0.00 0.00 0.00 0.01 0.02 0.02 0.00
0.00 0.00 0.00 0.00 0.00 0.00 0.00 0.00 0.00 0.00 0.00 0.00 0.00 0.00 0.00 0.00 0.00 0.00 0.00 0.00 0.00 0.00 0.00 0.00 0.00 0.00 0.00 0.00 0.00 0.00 0.00 0.00 0.00 0.00 0.00 0.00 0.00 0.00 0.00 0.00 0.00 0.00 0.00 0.00 0.00 0.01 0.03 0.02 0.08
0.00 0.00 0.00 0.00 0.00 0.00 0.00 0.00 0.00 0.00 0.00 0.00 0.00 0.00 0.00 0.00 0.00 0.00 0.00 0.00 0.00 0.00 0.00 0.00 0.00 0.00 0.00 0.00 0.00 0.00 0.00 0.00 0.00 0.00 0.00 0.00 0.00 0.00 0.00 0.00 0.00 0.00 0.00 0.00 0.00 0.02 0.08 0.04 0.26
0.00 0.00 0.00 0.00 0.00 0.00 0.00 0.00 0.00 0.00 0.00 0.00 0.00 0.00 0.00 0.00 0.00 0.00 0.00 0.00 0.00 0.00 0.00 0.00 0.00 0.00 0.00 0.00 0.00 0.00 0.00 0.00 0.00 0.00 0.00 0.00 0.00 0.00 0.00 0.00 0.00 0.00 0.00 0.00 0.00 0.00 0.06 0.09 0.02
0.00 0.00 0.00 0.00 0.00 0.00 0.00 0.00 0.00 0.00 0.00 0.00 0.00 0.00 0.00 0.00 0.00 0.00 0.00 0.00 0.00 0.00 0.00 0.00 0.00 0.00 0.00 0.00 0.00 0.00 0.00 0.00 0.00 0.00 0.00 0.00 0.00 0.00 0.00 0.00 0.00 0.00 0.00 0.00 0.00 0.00 0.05 0.13 0.03
0.00 0.00 0.00 0.00 0.00 0.00 0.00 0.00 0.00 0.00 0.00 0.00 0.00 0.00 0.00 0.00 0.00 0.00 0.00 0.00 0.00 0.00 0.00 0.00 0.00 0.00 0.00 0.00 0.00 0.00 0.00 0.00 0.00 0.00 0.00 0.00 0.00 0.00 0.00 0.00 0.00 0.00 0.00 0.00 0.00 0.00 0.00 0.00 0.00
0.00 0.00 0.00 0.00 0.00 0.00 0.00 0.00 0.00 0.00 0.00 0.00 0.00 0.00 0.00 0.00 0.00 0.00 0.00 0.00 0.00 0.00 0.00 0.00 0.00 0.00 0.00 0.00 0.00 0.00 0.00 0.00 0.00 0.00 0.00 0.00 0.00 0.00 0.00 0.00 0.00 0.00 0.00 0.00 0.00 0.02 0.05 0.00 0.00
0.00 0.00 0.00 0.00 0.00 0.00 0.00 0.00 0.00 0.00 0.00 0.00 0.00 0.00 0.00 0.00 0.00 0.00 0.00 0.00 0.00 0.00 0.00 0.00 0.00 0.00 0.00 0.00 0.00 0.00 0.00 0.00 0.00 0.00 0.00 0.00 0.00 0.00 0.00 0.00 0.00 0.00 0.00 0.00 0.00 0.01 0.01 0.00 0.00
0.00 0.00 0.00 0.00 0.00 0.00 0.00 0.00 0.00 0.00 0.00 0.00 0.00 0.00 0.00 0.00 0.00 0.00 0.00 0.00 0.00 0.00 0.00 0.00 0.00 0.00 0.00 0.00 0.00 0.00 0.00 0.00 0.00 0.00 0.00 0.00 0.00 0.00 0.00 0.00 0.00 0.00 0.00 0.00 0.00 0.00 0.01 0.01 0.01
0.00 0.00 0.00 0.00 0.00 0.00 0.00 0.00 0.00 0.00 0.00 0.00 0.00 0.00 0.00 0.00 0.00 0.00 0.00 0.00 0.00 0.00 0.00 0.00 0.00 0.00 0.00 0.00 0.00 0.00 0.00 0.00 0.00 0.00 0.00 0.00 0.00 0.00 0.00 0.00 0.00 0.00 0.00 0.00 0.00 0.00 0.00 0.00 0.01
0.00 0.00 0.00 0.00 0.00 0.00 0.00 0.00 0.00 0.00 0.00 0.00 0.00 0.00 0.00 0.00 0.00 0.00 0.00 0.00 0.00 0.00 0.00 0.00 0.00 0.00 0.00 0.00 0.00 0.00 0.00 0.00 0.00 0.00 0.00 0.00 0.00 0.00 0.00 0.00 0.00 0.00 0.00 0.00 0.00 0.01 0.01 0.00 0.00
0.00 0.00 0.00 0.00 0.00 0.00 0.00 0.00 0.00 0.00 0.00 0.00 0.00 0.00 0.00 0.00 0.00 0.00 0.00 0.00 0.00 0.00 0.00 0.00 0.00 0.00 0.00 0.00 0.00 0.00 0.00 0.00 0.00 0.00 0.00 0.00 0.00 0.00 0.00 0.00 0.00 0.00 0.00 0.00 0.00 0.02 0.03 0.00 0.00
0.00 0.00 0.00 0.00 0.00 0.00 0.00 0.00 0.00 0.00 0.00 0.00 0.00 0.00 0.00 0.00 0.00 0.00 0.00 0.00 0.00 0.00 0.00 0.00 0.00 0.00 0.00 0.00 0.00 0.00 0.00 0.00 0.00 0.00 0.00 0.00 0.00 0.00 0.00 0.00 0.00 0.00 0.00 0.00 0.00 0.00 0.00 0.00 0.00
0.00 0.00 0.00 0.00 0.00 0.00 0.00 0.00 0.00 0.00 0.00 0.00 0.00 0.00 0.00 0.00 0.00 0.00 0.00 0.00 0.00 0.00 0.00 0.00 0.00 0.00 0.00 0.00 0.00 0.00 0.00 0.00 0.00 0.00 0.00 0.00 0.00 0.00 0.00 0.00 0.00 0.00 0.00 0.00 0.00 0.00 0.00 0.01 0.00
0.00 0.00 0.00 0.00 0.00 0.00 0.00 0.00 0.00 0.00 0.00 0.00 0.00 0.00 0.00 0.00 0.00 0.00 0.00 0.00 0.00 0.00 0.00 0.00 0.00 0.00 0.00 0.00 0.00 0.00 0.00 0.00 0.00 0.00 0.00 0.00 0.00 0.00 0.00 0.00 0.00 0.00 0.00 0.00 0.00 0.00 0.00 0.02 0.00
0.00 0.00 0.00 0.00 0.00 0.00 0.00 0.00 0.00 0.00 0.00 0.00 0.00 0.00 0.00 0.00 0.00 0.00 0.00 0.00 0.00 0.00 0.00 0.00 0.00 0.00 0.00 0.00 0.00 0.00 0.00 0.00 0.00 0.00 0.00 0.00 0.00 0.00 0.00 0.00 0.00 0.00 0.00 0.00 0.00 0.01 0.04 0.05 0.01
0.00 0.00 0.00 0.00 0.00 0.00 0.00 0.00 0.00 0.00 0.00 0.00 0.00 0.00 0.00 0.00 0.00 0.00 0.00 0.00 0.00 0.00 0.00 0.00 0.00 0.00 0.00 0.00 0.00 0.00 0.00 0.00 0.00 0.00 0.00 0.00 0.00 0.00 0.00 0.00 0.00 0.00 0.04 0.11 0.21 0.28 0.32 0.10 0.07
0.00 0.00 0.00 0.00 0.00 0.00 0.00 0.00 0.00 0.00 0.00 0.00 0.00 0.00 0.00 0.00 0.00 0.00 0.00 0.00 0.00 0.00 0.00 0.00 0.00 0.00 0.00 0.00 0.00 0.00 0.00 0.00 0.00 0.00 0.00 0.00 0.00 0.00 0.00 0.00 0.01 0.03 0.07 0.07 0.17 0.15 0.05 0.05 0.06
0.00 0.00 0.00 0.00 0.00 0.00 0.00 0.00 0.00 0.00 0.00 0.00 0.00 0.00 0.00 0.00 0.00 0.00 0.00 0.00 0.00 0.00 0.00 0.00 0.00 0.00 0.00 0.00 0.00 0.00 0.00 0.00 0.00 0.00 0.00 0.00 0.00 0.00 0.00 0.00 0.00 0.02 0.11 0.10 0.02 0.04 0.03 0.05 0.08
0.00 0.00 0.00 0.00 0.00 0.00 0.00 0.00 0.00 0.00 0.00 0.00 0.00 0.00 0.00 0.00 0.00 0.00 0.00 0.00 0.00 0.00 0.00 0.00 0.00 0.00 0.00 0.00 0.00 0.00 0.00 0.00 0.00 0.00 0.00 0.00 0.00 0.00 0.00 0.00 0.00 0.00 0.00 0.01 0.00 0.01 0.08 0.08 0.07
0.00 0.00 0.00 0.00 0.00 0.00 0.00 0.00 0.00 0.00 0.00 0.00 0.00 0.00 0.00 0.00 0.00 0.00 0.00 0.00 0.00 0.00 0.00 0.00 0.00 0.00 0.00 0.00 0.00 0.00 0.00 0.00 0.00 0.00 0.00 0.00 0.00 0.00 0.00 0.00 0.00 0.00 0.00 0.00 0.00 0.01 0.05 0.07 0.06
MSLP
1008.57 1008.05 1007.55 1006.62 1005.39 1003.14 1003.05 1004.28 1004.51 1005.02 1005.48 1005.89 1006.86 1007.30 1007.42 1007.75 1008.53 1010.09 1011.06 1011.17 1011.93 1012.33 1013.35 1014.37 1014.85 1015.26 1015.68 1016.00 1016.17 1016.37 1016.60 1016.77 1017.06 1017.25 1017.33 1017.48 1017.56 1017.62 1017.76 1017.91 1018.03 1017.99 1018.13 1018.20 1018.32 1018.38 1018.39 1018.47 1018.52
1007.47 1007.89 1007.22 1005.27 1003.13 1002.23 1003.21 1003.55 1004.09 1004.79 1005.34 1005.86 1006.64 1006.96 1007.27 1008.09 1009.27 1010.71 1011.13 1011.61 1012.03 1012.45 1013.34 1014.04 1015.17 1015.37 1015.91 1016.16 1016.36 1016.51 1016.70 1016.86 1017.15 1017.40 1017.55 1017.69 1017.79 1017.75 1017.89 1018.03 1018.17 1018.21 1018.22 1018.28 1018.34 1018.43 1018.49 1018.59 1018.74
1007.93 1007.87 1006.00 1003.56 1002.31 1001.91 1002.73 1003.39 1004.05 1004.97 1005.53 1005.85 1006.37 1007.12 1007.74 1008.91 1009.91 1010.48 1010.87 1011.65 1011.98 1012.51 1013.11 1014.05 1015.26 1015.65 1016.04 1016.26 1016.53 1016.67 1016.88 1017.07 1017.34 1017.52 1017.64 1017.84 1017.91 1017.86 1017.90 1018.06 1018.29 1018.34 1018.40 1018.47 1018.49 1018.45 1018.45 1018.61 1018.74
1007.41 1006.66 1005.20 1003.09 1002.43 1002.71 1002.65 1003.34 1004.00 1004.78 1005.40 1005.84 1006.19 1007.05 1008.92 1009.90 1009.97 1010.15 1011.33 1011.69 1012.20 1012.46 1013.03 1014.81 1015.36 1015.75 1016.07 1016.30 1016.61 1016.79 1016.96 1017.18 1017.46 1017.64 1017.79 1017.95 1018.07 1018.14 1018.24 1018.20 1018.27 1018.40 1018.43 1018.50 1018.60 1018.68 1018.67 1018.48 1018.68
1006.73 1005.46 1003.09 1002.39 1002.50 1002.67 1002.84 1003.35 1003.96 1004.25 1004.83 1005.54 1006.14 1007.25 1008.62 1009.89 1010.15 1010.79 1011.39 1011.75 1012.09 1012.61 1013.07 1014.68 1015.50 1015.83 1016.24 1016.50 1016.72 1016.89 1017.04 1017.27 1017.51 1017.69 1017.89 1018.07 1018.08 1018.19 1018.31 1018.42 1018.49 1018.49 1018.55 1018.56 1018.57 1018.53 1018.56 1018.67 1018.69
1005.34 1004.65 1002.25 1001.91 1002.53 1002.80 1002.95 1003.43 1003.82 1004.06 1004.73 1005.65 1006.12 1007.04 1008.90 1010.04 1010.31 1010.85 1011.39 1011.71 1011.97 1012.52 1013.21 1014.32 1015.55 1015.94 1016.31 1016.64 1016.88 1017.09 1017.26 1017.48 1017.69 1017.77 1017.86 1017.98 1018.11 1018.23 1018.34 1018.43 1018.53 1018.52 1018.61 1018.59 1018.61 1018.58 1018.45 1018.41 1018.53
1005.41 1003.60 1002.77 1002.13 1002.51 1002.67 1003.08 1003.54 1003.52 1003.93 1004.56 1005.07 1005.80 1006.37 1009.09 1009.71 1010.36 1010.84 1011.49 1011.93 1012.13 1012.60 1013.20 1014.25 1015.08 1015.89 1016.46 1016.74 1016.93 1017.08 1017.28 1017.46 1017.66 1017.81 1017.93 1017.97 1017.99 1018.09 1018.12 1018.34 1018.42 1018.42 1018.47 1018.51 1018.57 1018.47 1018.41 1018.39 1018.48
1005.29 1004.23 1002.51 1002.25 1002.18 1002.69 1003.21 1003.65 1003.95 1003.96 1004.71 1005.47 1005.73 1005.92 1008.15 1009.27 1010.37 1011.05 1011.73 1012.08 1012.39 1012.76 1013.08 1013.73 1014.50 1015.18 1015.61 1016.07 1016.82 1017.02 1017.25 1017.42 1017.59 1017.74 1017.85 1017.97 1017.96 1017.86 1017.91 1018.01 1017.90 1018.18 1018.36 1018.35 1018.34 1018.36 1018.21 1018.31 1018.40
1005.29 1003.27 1002.55 1002.64 1002.46 1002.70 1003.27 1003.48 1004.22 1004.57 1004.95 1005.48 1006.09 1006.15 1006.99 1009.20 1010.18 1010.87 1011.59 1012.09 1012.58 1012.91 1013.09 1013.34 1014.01 1014.75 1015.22 1015.40 1016.00 1016.92 1017.15 1017.34 1017.48 1017.50 1017.59 1017.75 1017.05 1016.33 1016.66 1016.80 1017.51 1017.89 1018.08 1018.07 1018.12 1018.06 1017.98 1018.11 1018.12
1004.79 1002.73 1002.78 1003.22 1003.12 1002.76 1003.01 1003.13 1003.79 1004.29 1004.85 1005.57 1006.55 1007.27 1008.22 1009.31 1009.99 1010.42 1011.00 1011.42 1011.99 1012.39 1012.71 1013.12 1013.34 1013.94 1014.54 1015.03 1015.35 1016.08 1016.03 1016.15 1016.21 1016.35 1016.48 1016.38 1016.01 1016.29 1016.72 1017.02 1017.48 1017.71 1017.78 1017.73 1017.69 1017.73 1017.82 1017.84 1017.64
1004.18 1003.08 1003.48 1003.34 1003.17 1003.11 1002.65 1003.06 1003.77 1003.91 1004.23 1004.65 1005.99 1007.50 1008.60 1009.31 1009.79 1010.13 1010.54 1010.85 1011.38 1011.94 1012.39 1012.86 1013.14 1013.57 1013.77 1014.43 1014.85 1015.14 1015.14 1015.30 1015.53 1016.25 1016.53 1016.27 1016.24 1016.25 1016.16 1016.11 1016.23 1016.48 1017.13 1016.47 1016.78 1016.50 1016.57 1016.71 1017.30
1003.86 1003.78 1003.56 1003.42 1003.01 1002.58 1002.47 1003.07 1003.68 1004.25 1004.67 1004.97 1006.05 1007.54 1008.42 1008.95 1009.26 1009.61 1009.99 1010.39 1010.93 1011.59 1012.11 1012.59 1013.00 1013.59 1013.98 1014.22 1014.74 1014.64 1014.82 1014.97 1015.27 1015.42 1016.15 1016.42 1016.35 1016.39 1016.33 1016.04 1016.05 1016.47 1016.16 1016.08 1016.42 1015.87 1016.60 1016.49 1016.73
1003.90 1003.61 1003.61 1003.31 1002.97 1002.49 1002.88 1003.13 1003.83 1004.83 1005.43 1005.96 1006.82 1007.77 1008.32 1008.70 1009.17 1009.49 1009.87 1010.40 1010.80 1011.39 1011.97 1012.41 1013.11 1013.81 1013.95 1014.56 1014.40 1014.75 1014.57 1014.82 1014.97 1015.35 1015.65 1016.00 1015.89 1015.89 1015.95 1015.79 1015.77 1015.74 1015.71 1015.66 1015.86 1015.68 1015.73 1016.28 1016.21
1004.27 1003.75 1003.35 1003.11 1002.78 1002.85 1002.98 1003.55 1003.93 1005.40 1005.95 1006.57 1007.31 1007.75 1008.15 1008.48 1008.96 1009.45 1009.90 1010.23 1010.75 1011.25 1011.75 1012.27 1012.90 1013.56 1013.92 1014.30 1014.57 1014.57 1014.55 1014.63 1014.87 1014.87 1015.01 1015.63 1015.61 1015.61 1015.52 1015.56 1015.38 1015.26 1015.25 1015.19 1015.22 1015.32 1015.49 1016.26 1015.70
1004.18 1003.34 1002.91 1002.75 1002.76 1002.87 1002.84 1003.32 1004.04 1005.35 1005.79 1006.50 1007.17 1007.75 1008.14 1008.49 1008.92 1009.29 1009.75 1010.12 1010.56 1010.85 1011.30 1011.85 1012.61 1013.17 1013.83 1014.21 1014.48 1014.59 1014.42 1014.26 1014.40 1014.53 1014.87 1015.20 1015.35 1015.35 1015.52 1015.07 1014.91 1014.67 1014.72 1015.13 1015.11 1015.22 1014.91 1015.02 1014.75
1003.26 1003.01 1002.04 1002.61 1002.50 1002.95 1002.93 1002.93 1004.46 1005.33 1005.54 1006.11 1006.86 1007.54 1008.08 1008.33 1008.65 1009.01 1009.42 1009.90 1010.19 1010.59 1011.05 1011.69 1012.17 1012.69 1013.36 1013.86 1014.16 1014.23 1014.11 1014.18 1014.10 1014.18 1014.34 1014.83 1015.04 1015.16 1015.01 1014.68 1014.40 1014.27 1014.38 1014.35 1014.34 1014.35 1014.52 1014.53 1014.14
1002.63 1001.51 1001.82 1002.07 1002.38 1002.46 1002.34 1002.67 1004.19 1005.09 1005.33 1005.78 1006.45 1007.05 1007.59 1007.97 1008.36 1008.60 1008.95 1009.32 1009.61 1010.19 1010.83 1011.53 1012.15 1012.49 1012.90 1013.59 1013.76 1013.95 1013.91 1013.99 1013.85 1013.81 1013.79 1014.05 1014.51 1014.57 1014.75 1014.16 1013.82 1014.12 1013.99 1013.91 1013.93 1013.88 1014.00 1014.00 1013.83
1001.51 1001.42 1001.56 1001.39 1002.01 1002.10 1002.00 1002.13 1003.51 1004.44 1004.77 1005.19 1005.73 1006.35 1006.83 1007.11 1007.46 1007.99 1008.39 1008.71 1009.11 1009.65 1010.48 1011.40 1011.91 1012.36 1012.73 1013.02 1013.42 1013.30 1013.32 1013.35 1013.36 1013.33 1013.19 1013.31 1013.56 1013.92 1014.07 1013.84 1013.79 1013.82 1013.69 1013.52 1013.50 1013.57 1013.53 1013.72 1013.61
1001.60 1001.42 1001.29 1001.30 1001.62 1001.57 1001.32 1001.74 1002.47 1003.57 1004.01 1004.24 1004.73 1005.51 1006.01 1006.26 1006.52 1006.96 1007.46 1008.10 1008.63 1009.05 1009.75 1010.53 1011.21 1011.79 1012.31 1012.36 1012.45 1012.50 1012.41 1012.55 1012.59 1012.51 1012.72 1012.98 1013.15 1013.23 1013.43 1013.40 1013.28 1013.28 1013.50 1013.33 1013.35 1013.62 1013.57 1013.23 1013.03
1001.82 1001.27 1000.75 1001.24 1001.31 1001.27 1001.11 1001.18 1001.76 1002.59 1003.02 1003.28 1003.75 1004.25 1004.85 1005.35 1005.70 1006.11 1006.67 1007.31 1007.84 1008.19 1008.91 1009.62 1010.38 1010.94 1011.49 1011.51 1011.58 1011.66 1011.71 1011.75 1011.79 1011.82 1011.79 1012.19 1012.43 1012.55 1012.60 1012.67 1012.56 1012.54 1012.57 1012.89 1013.33 1013.41 1013.03 1012.66 1012.64
1001.02 1000.74 1000.65 1000.34 1001.09 1001.14 1000.93 1000.74 1001.32 1001.95 1002.29 1002.56 1002.94 1003.29 1003.68 1004.03 1004.37 1004.96 1005.77 1006.34 1006.81 1007.31 1007.89 1008.61 1009.36 1009.97 1010.64 1011.11 1011.17 1011.37 1011.54 1011.35 1011.11 1010.95 1011.00 1011.05 1011.46 1011.59 1011.63 1011.61 1011.82 1011.97 1012.21 1011.88 1012.12 1012.69 1013.16 1012.51 1011.93
1000.15 1000.88 1000.67 1000.46 1000.06 999.16 1000.24 999.73 1000.62 1000.91 1001.37 1001.90 1002.24 1002.52 1002.72 1002.96 1003.53 1003.95 1004.57 1005.25 1005.73 1006.20 1006.87 1007.61 1008.39 1009.24 1009.81 1010.22 1010.41 1010.38 1010.23 1009.93 1009.67 1009.86 1009.85 1010.08 1010.38 1010.71 1010.82 1010.80 1011.06 1011.24 1011.28 1011.23 1011.35 1011.39 1011.44 1011.75 1011.38
1000.67 1000.50 1000.25 999.88 999.51 999.19 999.45 998.38 999.75 1000.47 1000.66 1000.68 1000.93 1001.41 1001.85 1002.14 1002.41 1002.85 1003.49 1004.16 1004.64 1005.23 1005.81 1006.52 1007.39 1008.19 1008.64 1009.01 1009.70 1009.57 1009.79 1009.26 1009.20 1009.23 1009.29 1009.57 1009.83 1010.09 1010.21 1010.18 1010.52 1010.75 1011.09 1010.94 1011.11 1011.12 1011.33 1011.19 1011.16
1001.04 1000.39 1000.05 999.48 998.71 997.97 999.09 998.57 998.65 999.53 999.85 1000.11 1000.35 1000.63 1001.11 1001.61 1002.09 1002.51 1002.98 1003.44 1003.95 1004.57 1005.31 1005.92 1006.76 1007.61 1008.21 1008.66 1008.97 1009.33 1009.10 1009.08 1008.87 1008.61 1008.68 1008.69 1008.85 1008.98 1009.36 1009.58 1009.63 1009.61 1009.67 1009.87 1010.20 1011.06 1011.73 1012.17 1011.37
1000.79 999.57 998.48 998.05 997.79 997.53 999.18 998.77 998.49 999.82 1000.45 1000.51 1000.53 1000.84 1001.07 1001.85 1001.77 1002.08 1002.93 1003.47 1004.01 1004.57 1005.25 1005.87 1006.57 1007.47 1007.95 1008.27 1008.60 1008.89 1009.16 1009.16 1008.98 1008.72 1008.36 1008.08 1007.85 1007.81 1008.18 1008.92 1009.22 1009.11 1009.09 1009.29 1009.82 1010.19 1010.62 1010.91 1011.47
999.77 998.47 997.76 997.19 996.64 997.48 999.17 998.41 999.20 1000.53 1000.99 1001.26 1001.64 1002.14 1002.41 1002.25 1002.35 1002.84 1003.41 1004.13 1004.79 1005.32 1005.79 1006.34 1006.76 1007.42 1007.80 1008.13 1008.47 1008.74 1008.83 1008.68 1008.40 1008.17 1008.15 1007.99 1007.61 1007.42 1007.61 1007.91 1008.38 1008.57 1008.65 1008.96 1008.91 1008.68 1008.46 1008.88 1010.49
999.09 999.00 998.07 997.24 997.77 997.45 997.50 998.71 999.81 1000.52 1001.36 1001.76 1002.33 1002.82 1003.20 1003.47 1003.92 1004.51 1005.08 1005.54 1005.99 1006.35 1006.88 1007.20 1007.59 1007.89 1008.05 1008.17 1008.35 1008.53 1008.65 1008.61 1008.35 1008.36 1008.25 1007.85 1007.74 1007.53 1007.58 1007.73 1007.75 1007.96 1008.09 1008.35 1008.54 1008.52 1008.25 1008.53 1009.07
999.17 998.51 997.84 997.25 997.03 996.95 997.35 998.07 998.18 1000.34 1001.51 1002.43 1003.01 1003.62 1004.15 1004.54 1005.05 1005.47 1005.83 1006.38 1006.73 1007.09 1007.57 1007.85 1008.01 1008.28 1008.40 1008.36 1008.41 1008.37 1008.45 1008.35 1008.27 1008.21 1008.06 1007.90 1007.68 1007.55 1007.51 1007.50 1007.44 1007.40 1007.47 1007.75 1007.97 1007.83 1007.60 1007.67 1007.63
999.05 998.26 997.59 996.97 997.10 996.53 996.93 997.45 999.30 1000.63 1001.78 1002.80 1003.67 1004.35 1004.95 1005.33 1005.78 1006.22 1006.60 1007.29 1007.63 1008.05 1008.32 1008.39 1008.62 1008.75 1008.78 1008.77 1008.72 1008.65 1008.54 1008.45 1008.34 1008.20 1008.01 1007.81 1007.60 1007.44 1007.20 1006.99 1006.85 1006.69 1006.60 1006.59 1006.63 1006.63 1006.32 1005.87 1005.91
997.62 996.83 996.82 996.31 997.02 997.35 997.85 998.90 1000.57 1001.51 1002.16 1003.15 1004.21 1004.87 1005.33 1005.85 1006.38 1006.76 1007.27 1007.75 1008.21 1008.38 1008.61 1008.85 1008.96 1009.05 1009.16 1009.22 1009.06 1008.77 1008.58 1008.49 1008.23 1008.06 1007.86 1007.67 1007.38 1007.14 1006.84 1006.51 1006.21 1006.04 1005.93 1005.87 1005.71 1005.31 1004.97 1004.84 1004.88
Thickness
5825 5830 5835 5828 5807 5824 5803 5794 5814 5802 5803 5820 5816 5803 5801 5808 5797 5783 5807 5812 5807 5804 5795 5786 5783 5778 5772 5770 5768 5767 5765 5762 5760 5758 5756 5754 5754 5753 5751 5749 5747 5746 5744 5742 5740 5739 5740 5739 5738
5838 5834 5833 5830 5822 5805 5795 5819 5806 5812 5820 5827 5820 5815 5811 5801 5811 5799 5803 5809 5806 5803 5795 5790 5781 5779 5773 5771 5769 5768 5765 5763 5761 5759 5756 5754 5753 5753 5752 5750 5748 5747 5745 5743 5742 5741 5740 5740 5738
5838 5837 5828 5833 5828 5808 5801 5821 5820 5821 5827 5823 5816 5822 5813 5799 5807 5807 5815 5811 5807 5804 5798 5791 5782 5779 5775 5772 5770 5767 5765 5763 5761 5759 5758 5756 5754 5753 5753 5751 5749 5747 5746 5745 5743 5743 5742 5741 5740
5836 5836 5839 5829 5816 5824 5826 5830 5832 5824 5828 5831 5827 5809 5810 5813 5810 5819 5816 5814 5806 5804 5800 5787 5783 5780 5776 5774 5771 5768 5767 5764 5762 5760 5758 5756 5755 5754 5751 5750 5748 5746 5745 5745 5745 5743 5744 5745 5743
5844 5838 5830 5826 5823 5833 5841 5842 5839 5829 5830 5828 5830 5808 5806 5813 5821 5819 5817 5814 5808 5805 5801 5789 5784 5780 5776 5774 5771 5770 5768 5765 5763 5761 5759 5757 5757 5755 5752 5749 5747 5746 5745 5744 5745 5746 5746 5745 5744
5834 5841 5832 5820 5822 5836 5844 5847 5841 5838 5837 5829 5824 5819 5808 5821 5818 5819 5818 5815 5813 5808 5803 5794 5784 5780 5777 5774 5772 5770 5768 5765 5763 5762 5761 5760 5758 5757 5755 5753 5750 5748 5746 5745 5744 5744 5746 5747 5747
5826 5836 5825 5833 5826 5830 5838 5853 5841 5839 5835 5832 5841 5822 5812 5818 5822 5822 5818 5815 5813 5808 5804 5795 5788 5782 5778 5775 5773 5772 5770 5767 5765 5763 5762 5761 5761 5760 5759 5757 5754 5752 5750 5748 5746 5745 5746 5746 5746
5840 5836 5833 5838 5829 5826 5847 5847 5851 5845 5832 5849 5849 5825 5809 5823 5825 5822 5817 5814 5811 5808 5805 5800 5794 5789 5785 5781 5775 5774 5772 5769 5767 5765 5764 5763 5762 5763 5762 5760 5760 5756 5754 5752 5750 5747 5748 5747 5746
5853 5836 5826 5830 5833 5837 5853 5842 5851 5856 5841 5842 5843 5844 5845 5834 5829 5820 5813 5810 5807 5806 5806 5804 5799 5794 5790 5788 5783 5776 5774 5772 5770 5769 5768 5766 5770 5776 5772 5770 5764 5759 5757 5754 5753 5751 5749 5749 5749
5837 5840 5836 5848 5848 5847 5853 5853 5849 5843 5837 5833 5832 5839 5838 5832 5826 5818 5813 5810 5808 5807 5808 5808 5806 5800 5795 5792 5789 5783 5783 5782 5781 5779 5778 5777 5779 5776 5772 5769 5765 5762 5759 5759 5758 5756 5753 5752 5756
5846 5836 5847 5851 5858 5858 5858 5854 5858 5845 5835 5846 5833 5829 5830 5827 5825 5822 5819 5819 5815 5814 5813 5811 5809 5804 5802 5798 5794 5792 5791 5790 5788 5782 5779 5779 5778 5777 5776 5776 5774 5771 5766 5769 5766 5768 5766 5764 5759
5842 5850 5852 5853 5863 5863 5858 5863 5850 5848 5845 5859 5850 5839 5833 5828 5828 5826 5824 5824 5822 5817 5816 5815 5812 5807 5802 5800 5796 5797 5795 5793 5790 5789 5782 5779 5778 5776 5776 5777 5776 5772 5773 5774 5770 5774 5768 5767 5761
5846 5851 5855 5861 5864 5867 5866 5857 5850 5842 5852 5855 5848 5838 5832 5831 5830 5831 5830 5828 5826 5819 5817 5816 5812 5806 5804 5799 5800 5797 5798 5795 5793 5790 5787 5783 5783 5782 5780 5780 5780 5779 5778 5777 5775 5775 5775 5770 5770
5849 5853 5856 5862 5864 5865 5855 5852 5857 5845 5853 5845 5840 5836 5836 5835 5832 5830 5828 5826 5824 5822 5819 5819 5814 5809 5805 5802 5799 5798 5797 5796 5794 5793 5792 5786 5786 5785 5785 5783 5784 5784 5783 5783 5781 5779 5777 5770 5773
5851 5843 5855 5860 5863 5857 5868 5844 5842 5851 5854 5842 5838 5837 5837 5837 5836 5831 5830 5828 5828 5827 5825 5822 5818 5814 5807 5804 5800 5798 5798 5799 5798 5796 5793 5791 5789 5789 5787 5789 5791 5791 5790 5785 5784 5782 5782 5780 5782
5847 5848 5833 5853 5862 5861 5861 5831 5845 5854 5851 5842 5840 5837 5835 5837 5838 5838 5838 5834 5834 5831 5827 5825 5822 5818 5812 5807 5803 5802 5802 5801 5801 5800 5798 5794 5792 5790 5791 5794 5795 5795 5793 5793 5793 5793 5788 5786 5788
5845 5834 5835 5842 5864 5859 5859 5840 5849 5856 5852 5845 5843 5841 5839 5838 5839 5842 5843 5841 5840 5836 5831 5825 5822 5820 5817 5811 5807 5805 5805 5804 5804 5804 5804 5801 5797 5795 5794 5799 5800 5796 5796 5797 5796 5795 5792 5788 5790
5833 5837 5844 5843 5857 5860 5854 5853 5855 5856 5854 5850 5850 5847 5844 5843 5843 5847 5848 5849 5847 5844 5837 5828 5825 5822 5819 5817 5812 5812 5810 5809 5808 5807 5807 5806 5803 5800 5798 5799 5799 5797 5797 5797 5797 5794 5794 5789 5788
5855 5848 5843 5857 5868 5859 5859 5856 5860 5860 5858 5856 5855 5850 5847 5848 5857 5858 5856 5854 5851 5849 5842 5837 5830 5827 5822 5820 5816 5814 5812 5814 5813 5813 5810 5808 5805 5803 5801 5800 5801 5799 5796 5796 5796 5791 5788 5788 5792
5851 5847 5852 5859 5869 5863 5861 5857 5867 5865 5862 5866 5863 5860 5857 5855 5857 5860 5860 5858 5855 5854 5849 5845 5838 5834 5828 5828 5826 5824 5821 5820 5820 5819 5817 5813 5809 5806 5804 5803 5803 5802 5801 5797 5790 5787 5786 5788 5790
5858 5851 5852 5857 5861 5866 5859 5852 5857 5868 5873 5875 5875 5874 5871 5867 5865 5865 5863 5862 5863 5859 5857 5852 5847 5842 5836 5832 5830 5827 5824 5823 5821 5822 5821 5820 5814 5810 5807 5806 5803 5801 5797 5797 5794 5786 5777 5776 5787
5854 5866 5863 5858 5856 5853 5868 5830 5852 5867 5866 5870 5872 5874 5876 5877 5877 5876 5873 5869 5869 5868 5868 5862 5854 5848 5844 5841 5834 5829 5827 5824 5830 5826 5827 5823 5818 5813 5809 5807 5804 5800 5798 5796 5792 5790 5787 5780 5775
5851 5873 5866 5868 5863 5865 5859 5865 5858 5869 5858 5870 5880 5882 5884 5886 5887 5885 5883 5881 5881 5880 5876 5872 5863 5856 5852 5848 5839 5835 5827 5832 5832 5829 5825 5821 5818 5814 5809 5806 5802 5797 5791 5790 5786 5784 5781 5780 5775
5869 5865 5866 5873 5873 5853 5856 5862 5861 5862 5870 5878 5889 5891 5891 5891 5892 5893 5894 5892 5887 5887 5880 5875 5866 5857 5853 5848 5843 5836 5834 5831 5829 5828 5824 5821 5818 5816 5811 5805 5802 5800 5796 5791 5786 5775 5766 5759 5762
5860 5860 5844 5840 5844 5846 5862 5857 5865 5877 5879 5882 5885 5889 5895 5891 5894 5894 5886 5884 5883 5879 5875 5872 5865 5853 5851 5846 5841 5836 5830 5825 5821 5821 5820 5819 5818 5816 5811 5802 5795 5792 5790 5786 5778 5772 5766 5756 5748
5857 5872 5845 5821 5843 5849 5859 5847 5860 5877 5882 5883 5883 5881 5882 5886 5890 5887 5884 5879 5875 5872 5870 5865 5860 5851 5848 5843 5837 5832 5827 5824 5823 5821 5817 5813 5812 5811 5808 5801 5794 5788 5783 5773 5770 5773 5758 5770 5742
5862 5846 5884 5865 5864 5852 5870 5868 5876 5880 5872 5875 5872 5872 5870 5873 5874 5870 5869 5867 5863 5860 5857 5854 5848 5843 5841 5837 5832 5826 5822 5816 5812 5808 5805 5805 5803 5801 5797 5792 5787 5782 5776 5768 5760 5759 5761 5756 5748
5866 5883 5856 5867 5826 5824 5854 5855 5865 5862 5860 5863 5861 5860 5861 5864 5863 5861 5860 5858 5857 5853 5849 5845 5841 5835 5831 5827 5823 5818 5812 5808 5804 5800 5795 5792 5791 5789 5785 5780 5777 5773 5768 5761 5752 5750 5754 5750 5748
5853 5856 5869 5876 5865 5846 5840 5860 5882 5867 5864 5856 5855 5855 5854 5854 5853 5852 5851 5847 5844 5840 5835 5832 5827 5821 5816 5813 5809 5804 5799 5795 5790 5785 5781 5778 5776 5772 5770 5768 5765 5762 5758 5754 5749 5745 5746 5748 5749
5881 5880 5879 5858 5840 5858 5855 5852 5874 5866 5867 5861 5852 5851 5852 5850 5847 5845 5842 5838 5831 5827 5824 5818 5814 5808 5802 5797 5793 5790 5788 5784 5779 5773 5770 5766 5761 5758 5755 5753 5753 5750 5747 5744 5740 5739 5742 5741 5739